RH
64 63 61 60 60 61 62 61 59 57 57 54 52 50 48 47 45 43 42 41 42 43 43 42 42 40 38 37 35 32 28 24 22 21 20 18 18 18 18 18 18 17 16 16 16 15 15 15 15 14 14 14 14 14 16 16 17 19 22 24 24 25 26 29 26 19 15 15 13 12 14 12 9 9 9 9 9 10 11 12 14 15 17 19 21
64 63 61 59 59 61 62 62 60 59 59 60 59 57 54 51 49 48 46 45 43 42 43 43 43 43 42 40 39 37 34 30 27 25 23 21 20 20 19 19 19 19 18 17 17 16 16 15 14 14 13 13 13 13 14 15 16 18 20 24 27 27 27 26 25 21 17 17 17 16 17 17 13 12 10 9 9 9 9 10 12 15 17 18 20
70 68 66 64 63 63 62 62 62 64 66 65 65 63 60 56 53 52 50 48 46 43 41 41 42 43 43 42 41 40 38 36 34 32 29 26 25 23 21 21 20 20 19 19 18 17 16 15 14 14 14 13 12 12 12 12 12 14 15 19 23 26 28 26 24 22 18 16 16 17 18 18 16 14 12 11 10 10 9 9 10 13 15 18 20
70 71 71 70 70 68 66 65 65 67 68 67 66 65 63 61 59 57 55 53 51 48 44 42 42 42 42 42 42 42 41 40 39 38 36 32 29 27 25 23 21 20 19 19 19 18 17 16 16 15 14 14 12 11 11 11 11 11 12 14 17 20 24 27 26 23 20 17 16 18 19 19 16 14 13 12 11 11 11 9 9 11 14 19 23
69 71 72 73 73 72 70 69 67 66 65 65 66 68 68 67 65 63 62 61 57 53 50 47 45 43 41 41 40 41 42 42 42 42 40 37 34 32 30 27 26 24 22 21 20 19 18 18 18 16 14 13 12 11 11 10 10 11 11 13 17 19 21 26 27 24 21 19 17 19 21 21 18 15 13 12 11 11 12 11 10 10 12 16 22
69 71 72 74 74 73 72 71 69 67 64 64 68 73 73 71 67 65 66 68 67 63 59 54 51 48 46 43 42 41 42 43 43 43 41 38 37 36 34 32 31 28 26 24 22 20 20 19 18 17 15 14 13 12 12 11 11 11 11 12 16 20 22 25 28 27 25 22 20 19 19 19 18 16 14 13 12 11 11 12 12 11 10 12 15
62 65 69 71 71 71 70 70 69 68 66 65 68 71 72 70 66 61 63 67 70 71 68 65 61 58 55 52 50 47 43 42 43 43 41 38 36 34 35 35 35 33 31 28 25 22 21 20 19 18 17 17 16 15 14 13 13 13 14 14 17 22 26 27 29 28 28 27 24 20 17 16 16 15 14 15 15 13 11 12 14 14 12 11 11
48 50 55 59 60 60 61 63 65 66 67 67 66 66 66 64 61 60 63 65 67 69 69 69 68 67 65 65 62 60 55 51 48 47 46 43 39 37 37 36 35 35 34 32 30 27 24 21 19 18 18 19 19 18 16 16 15 16 17 18 21 26 28 28 28 29 28 28 27 24 21 18 16 13 12 15 17 18 17 15 15 14 13 13 12
38 38 41 45 47 49 50 52 55 58 60 62 64 63 60 60 60 62 66 69 70 74 77 79 79 77 75 73 70 70 70 66 60 58 57 54 49 48 47 42 36 36 36 35 33 32 29 26 23 21 21 21 21 20 18 17 16 16 16 18 22 28 30 29 29 28 27 27 27 27 25 23 20 15 12 13 16 20 22 19 16 14 13 14 14
34 35 36 38 39 42 44 45 48 50 50 51 54 56 55 57 60 61 63 64 66 70 75 78 81 82 83 81 75 73 73 73 68 64 61 59 59 60 56 48 41 41 42 40 36 33 32 30 28 25 24 24 24 22 20 18 16 16 16 17 19 24 27 29 30 30 28 27 26 26 26 26 25 20 15 13 14 18 22 22 20 17 14 13 14
27 29 31 32 32 33 37 41 43 45 45 44 44 43 43 46 51 55 58 60 59 59 60 61 63 67 70 72 69 68 68 69 65 60 57 56 60 64 62 54 49 49 48 46 41 36 33 32 31 28 26 26 26 25 23 20 18 17 16 17 18 20 22 24 27 29 29 29 28 27 27 27 27 25 22 19 17 20 22 24 24 21 17 17 17
23 22 22 23 24 24 26 30 33 36 39 40 38 36 33 35 42 49 53 56 57 56 54 54 54 53 53 54 55 55 55 55 52 48 46 46 50 58 60 56 54 54 53 49 44 38 35 33 32 31 29 30 30 29 26 23 21 19 17 17 18 19 20 21 22 24 26 27 28 28 28 27 27 27 27 25 25 25 27 26 25 24 22 21 20
22 20 18 18 19 20 20 20 21 23 26 30 31 31 30 31 36 41 46 50 53 54 53 53 52 49 48 47 47 46 45 43 41 39 38 39 42 48 51 54 58 58 54 49 43 39 35 33 33 32 32 33 35 32 29 26 25 23 20 19 18 19 19 20 20 21 22 23 26 27 27 28 29 28 28 29 28 28 29 29 28 26 25 24 23
20 19 19 19 19 19 19 18 17 17 17 19 20 23 24 26 31 38 44 47 49 51 51 50 48 45 44 44 43 42 41 39 37 36 38 39 42 43 45 51 55 51 47 46 43 40 37 33 32 33 32 34 36 35 31 28 27 26 23 22 22 22 22 22 22 23 22 23 24 24 24 26 29 29 29 30 30 29 29 30 30 29 28 26 25
19 19 19 19 19 19 18 18 18 17 17 17 17 17 18 19 24 32 40 45 46 47 47 45 44 43 42 40 38 39 41 40 39 39 40 42 44 43 42 44 43 39 40 45 45 42 38 32 31 34 35 35 35 34 32 30 29 28 26 25 25 26 26 27 27 28 28 28 27 26 26 28 29 30 30 31 31 31 31 30 30 29 28 26 24
19 19 18 18 18 18 18 18 18 17 18 18 18 18 17 17 20 26 34 39 41 43 43 43 42 41 39 39 38 40 42 43 43 43 45 45 44 42 39 37 35 32 34 38 39 37 34 30 32 37 38 37 35 33 32 30 29 29 27 27 28 27 28 29 29 28 29 29 28 28 28 29 30 30 29 29 30 31 31 31 30 30 30 27 25
21 20 19 18 17 18 19 20 19 18 18 19 19 18 18 19 22 26 32 37 39 40 43 42 41 42 43 46 48 49 49 50 51 51 50 49 46 44 41 37 34 32 33 35 36 34 32 32 35 38 38 37 35 33 31 31 30 30 29 29 29 29 29 30 29 29 28 27 27 25 25 25 25 26 26 25 26 28 30 30 30 31 31 30 28
22 21 20 20 20 22 22 23 22 21 19 20 20 19 20 21 24 30 35 37 39 41 41 40 42 48 52 54 59 63 62 60 58 56 54 53 51 46 39 34 33 35 38 40 39 37 36 36 37 36 34 32 31 31 32 32 31 32 32 33 33 33 33 32 31 31 30 29 28 27 26 26 25 24 23 22 22 25 28 28 29 30 31 31 31
25 25 25 24 25 25 26 27 27 25 23 22 21 21 22 23 27 33 37 38 39 40 39 41 49 55 57 59 66 70 67 62 56 52 52 54 51 44 38 37 41 43 44 44 42 42 41 39 36 32 30 28 27 29 32 33 33 33 34 36 36 35 35 33 32 31 30 30 30 30 30 29 28 28 26 23 22 22 24 25 27 30 31 31 31
28 29 29 29 29 29 29 30 30 29 28 26 25 24 25 26 30 35 37 38 39 38 39 44 50 53 53 54 57 56 56 57 57 55 57 57 53 48 47 49 50 49 47 43 41 40 40 39 36 33 32 32 30 30 32 33 34 34 35 36 37 37 36 34 33 32 31 30 31 30 30 30 30 29 28 28 26 25 25 26 26 29 31 32 33
31 31 31 30 30 30 31 30 30 29 29 29 28 27 27 30 33 35 36 38 38 39 44 49 51 51 51 52 53 54 59 67 68 67 66 64 58 55 55 54 50 47 44 41 39 39 40 41 39 36 35 35 35 34 34 35 35 36 36 35 35 34 34 34 33 32 32 31 31 30 30 31 30 30 30 31 31 31 31 31 29 29 31 33 34
32 32 32 31 31 31 31 30 29 29 30 30 31 32 33 34 36 36 37 38 38 43 52 57 59 59 57 56 56 57 61 68 71 69 68 65 61 58 54 49 45 42 41 40 38 38 38 38 38 35 34 33 34 35 35 35 35 36 35 34 31 30 30 31 32 32 32 31 31 31 32 33 33 34 35 35 36 36 36 36 36 34 33 33 34
33 33 32 30 30 31 30 30 30 29 30 32 35 37 37 37 37 38 39 37 40 46 52 55 58 58 52 48 48 48 50 56 60 60 59 59 58 54 47 43 43 43 42 40 39 38 37 37 36 36 35 34 33 33 32 34 35 35 34 32 31 31 32 33 33 33 33 34 34 35 36 36 37 37 39 39 40 40 40 40 41 39 37 35 35
30 29 29 28 29 29 28 28 28 29 31 33 36 37 38 38 39 39 38 38 41 46 47 48 52 53 47 43 43 45 48 52 54 55 56 58 57 51 46 45 46 45 43 41 40 39 38 36 35 33 32 32 31 30 30 30 31 31 31 31 32 33 35 36 36 37 37 38 39 40 41 43 44 44 45 45 45 44 44 44 43 42 40 38 36
28 28 28 28 28 27 27 29 31 33 36 38 38 39 40 41 39 36 34 37 43 46 48 51 54 54 51 48 47 47 51 56 60 61 61 61 57 52 50 50 48 45 43 41 40 37 35 34 33 32 31 31 31 31 31 31 31 32 32 34 36 38 39 39 40 42 43 44 46 48 50 52 53 53 53 53 53 52 51 50 49 48 46 42 40
30 30 30 30 32 35 37 39 43 45 45 44 42 43 43 41 38 37 39 45 49 52 55 59 57 54 55 56 55 54 55 58 60 59 56 55 54 54 53 50 46 43 41 40 38 38 38 37 36 36 36 36 35 35 34 35 35 35 36 38 41 43 44 45 46 48 51 54 57 59 62 64 65 65 65 64 63 63 62 61 59 57 53 49 46
33 34 35 38 44 48 50 52 55 56 52 49 48 49 49 48 49 54 59 62 61 58 57 57 53 51 54 58 60 59 57 56 56 54 53 54 54 53 50 46 42 42 41 41 41 40 39 37 37 37 36 36 37 37 38 38 39 40 42 45 48 49 51 53 56 60 63 67 69 71 74 76 77 77 78 76 74 72 72 70 67 65 62 58 53
39 43 46 50 57 62 64 66 67 62 57 53 53 54 56 59 62 63 62 61 57 52 50 49 48 51 55 59 61 59 57 55 54 53 52 52 50 48 46 44 43 44 42 41 40 38 37 38 38 39 39 40 40 41 42 43 44 46 49 52 55 58 62 66 69 73 75 77 79 81 83 84 83 83 82 81 81 80 79 77 74 72 70 67 62
54 58 62 66 70 72 71 71 70 66 61 57 54 54 56 59 59 56 53 50 49 50 52 56 60 62 64 64 62 58 55 53 51 49 49 50 48 47 46 44 43 41 39 38 38 38 39 41 41 42 42 43 43 44 46 48 50 53 55 58 63 69 74 77 79 80 82 84 85 86 86 85 85 84 84 83 85 86 85 83 80 78 77 74 70
77 81 83 84 81 77 73 72 72 69 64 60 57 57 57 57 56 56 56 58 62 66 70 72 73 71 68 64 59 55 53 51 50 49 49 48 45 43 41 38 37 36 36 38 39 40 41 43 44 45 45 45 47 49 52 55 58 61 63 68 74 79 81 82 84 85 86 88 88 87 87 86 86 87 86 85 87 89 89 88 87 85 83 81 79
92 93 91 89 85 81 78 76 74 70 65 63 63 62 62 62 62 65 68 71 74 74 73 70 67 63 60 58 56 54 51 49 46 44 41 39 37 35 34 34 35 36 37 39 40 42 44 46 48 49 51 53 54 56 59 62 66 70 74 79 83 84 84 85 87 88 89 90 89 88 88 88 89 90 90 89 90 92 92 92 90 88 87 87 87
96 94 90 86 83 81 77 72 68 65 62 62 63 64 66 69 71 74 75 75 73 70 66 63 61 59 58 56 52 48 44 40 36 34 34 34 34 34 34 35 36 38 40 42 45 48 50 52 54 56 58 60 62 64 67 70 75 81 85 87 88 88 88 88 89 91 92 91 89 91 93 94 94 94 92 91 91 92 94 95 93 91 90 90 90
95 93 90 88 86 85 81 75 71 69 67 67 69 72 75 77 77 76 74 71 67 65 63 61 60 57 53 48 42 38 34 32 32 32 34 35 36 36 36 37 39 41 44 48 52 56 58 60 61 63 65 68 71 74 76 79 84 87 88 88 89 90 90 90 91 93 92 90 89 92 93 92 90 90 90 91 90 89 90 92 93 93 92 92 93
93 93 91 90 89 87 85 82 80 79 79 79 79 79 79 77 74 71 68 65 63 62 60 57 54 49 44 39 35 33 32 32 33 34 35 36 38 38 38 39 42 46 50 55 59 61 63 65 68 70 74 78 80 82 84 86 88 89 88 88 90 90 91 93 93 92 91 90 90 89 87 84 83 85 88 90 90 90 89 90 91 92 92 93 94
92 92 90 89 87 86 84 83 82 82 83 81 80 78 75 72 67 64 61 59 56 54 51 48 45 41 38 35 33 32 30 31 33 34 35 37 39 41 41 42 45 50 56 61 65 67 70 73 77 80 82 85 86 87 89 89 89 89 91 93 94 93 94 94 92 90 90 91 91 89 85 81 81 83 84 84 86 89 91 92 91 90 91 92 93
92 89 88 86 85 84 82 80 80 81 81 80 78 75 70 65 60 58 55 51 48 45 43 41 39 37 35 33 31 29 28 29 32 35 37 38 40 42 43 43 47 54 62 67 71 74 77 80 83 86 87 90 92 92 92 91 91 93 95 96 95 94 93 91 90 91 92 92 92 91 86 82 80 80 80 80 81 84 87 89 90 91 93 94 95
90 88 87 85 84 83 81 80 81 82 80 78 74 69 63 58 54 50 47 44 42 40 38 36 35 33 31 30 29 27 26 26 31 37 40 40 41 43 45 46 49 57 67 73 77 80 82 85 87 90 92 93 93 94 94 94 94 94 95 95 95 94 94 94 94 95 95 94 93 91 86 82 81 79 77 77 77 77 78 80 82 86 92 96 97
88 87 86 86 85 83 80 80 80 80 78 74 67 61 56 52 47 44 42 40 39 37 34 32 31 31 30 29 27 25 24 25 30 37 41 42 43 45 46 48 51 59 69 77 81 83 84 86 89 92 93 93 94 96 96 96 96 96 95 96 96 97 98 98 98 96 95 94 92 89 86 82 80 77 75 75 74 73 73 74 74 78 85 92 96
87 86 86 85 85 83 81 80 79 77 73 66 59 53 50 46 42 41 40 39 37 34 31 29 28 28 28 27 25 23 24 25 29 36 42 45 46 47 48 49 52 59 70 79 83 84 85 87 89 92 93 94 96 98 98 98 97 98 98 98 99 99 99 98 96 94 92 90 88 86 83 79 76 75 76 78 78 77 76 76 75 77 82 90 97
87 85 85 85 84 84 83 79 75 71 66 59 52 48 45 43 40 40 38 36 34 31 29 28 28 28 28 27 25 24 25 26 29 37 43 47 48 49 49 50 53 60 69 78 83 85 86 88 89 91 94 96 98 99 98 98 98 99 100 100 100 98 96 96 97 97 92 86 81 79 76 75 78 82 83 83 83 83 82 81 81 83 87 94 99
86 85 85 85 84 83 80 75 70 65 60 54 49 46 44 43 42 39 36 33 31 30 29 28 29 28 28 28 25 24 25 28 31 37 44 48 49 51 50 49 52 60 69 77 82 85 87 89 90 91 94 98 100 99 99 98 98 100 101 100 98 95 94 96 99 94 85 75 72 73 76 83 89 92 91 90 90 91 90 89 90 92 96 98 99
86 85 85 84 81 79 74 69 64 60 56 52 48 46 45 44 41 36 32 29 29 29 29 29 28 28 27 26 25 24 25 28 32 38 45 49 51 52 51 48 51 60 69 75 82 86 88 91 93 92 95 98 100 99 99 98 98 99 99 98 96 95 95 96 91 80 72 70 74 79 86 93 96 95 93 94 95 97 96 96 97 98 99 99 99
88 86 84 81 77 72 68 64 61 58 53 49 47 46 44 42 37 31 29 28 27 28 28 28 28 27 26 26 25 24 24 27 32 38 45 50 52 54 51 46 49 58 68 74 82 86 88 92 94 95 96 98 99 99 99 98 98 99 98 97 96 96 96 94 84 72 69 76 84 90 94 95 94 92 94 95 97 98 99 100 99 100 100 99 99
88 86 84 79 73 68 65 62 59 55 49 45 44 43 41 37 32 29 27 26 26 28 28 28 28 28 27 27 26 25 25 27 30 37 45 50 52 54 52 46 46 57 66 73 79 85 89 92 95 97 97 98 98 99 100 98 98 100 98 96 97 98 98 93 80 69 70 83 93 96 97 95 91 89 90 92 93 95 97 97 97 96 95 94 92
88 85 83 79 74 69 66 62 56 50 45 42 42 39 35 32 29 28 28 27 27 29 29 28 29 29 28 27 27 26 25 27 29 35 44 49 50 53 52 45 44 54 65 71 77 83 88 92 95 98 99 98 98 100 100 99 99 100 98 96 97 99 98 91 76 65 69 86 97 99 98 97 92 87 85 84 84 84 85 86 87 87 86 85 82
87 86 83 79 74 70 65 58 52 46 43 41 39 35 32 31 30 29 29 29 29 30 29 29 30 30 29 28 29 27 27 27 28 34 43 47 49 52 52 44 42 52 63 69 75 82 87 90 94 98 99 99 100 100 101 100 100 101 99 98 98 99 96 88 75 65 70 85 95 97 97 95 90 84 82 81 80 80 81 80 80 82 81 79 78
89 87 81 76 72 69 62 54 48 44 41 39 37 34 33 32 32 32 32 31 30 28 28 29 31 31 30 30 29 28 28 28 29 34 41 45 47 52 52 44 40 49 60 66 73 81 86 90 94 96 98 100 100 100 100 101 101 100 98 97 97 98 96 89 78 70 73 83 92 93 91 88 85 85 88 89 90 90 91 91 89 89 87 84 82
90 84 75 68 66 64 58 51 46 42 39 37 37 35 35 36 36 36 35 32 29 28 30 32 33 32 31 31 31 30 29 30 29 32 38 43 46 52 53 45 40 45 56 64 70 78 84 89 93 95 97 100 100 100 100 101 100 100 100 97 97 99 99 91 80 73 74 81 88 89 85 84 88 94 97 98 97 97 98 100 99 98 96 95 94
90 82 71 65 63 62 56 51 46 43 40 40 40 40 40 41 40 38 36 33 32 32 33 34 34 33 33 33 34 33 32 31 30 30 35 40 45 51 52 46 40 43 52 61 68 75 82 87 91 94 96 99 100 100 100 100 100 100 101 98 97 99 99 92 82 77 77 82 89 90 87 88 95 99 99 99 98 98 98 100 100 99 99 100 99
89 81 72 67 63 60 56 53 50 47 45 44 45 44 44 42 41 39 39 39 38 38 37 36 35 35 35 35 35 35 34 33 31 30 33 37 42 48 51 47 40 40 48 58 66 72 79 85 90 93 95 97 100 100 101 101 100 100 101 99 98 99 99 92 85 82 84 87 91 93 92 94 98 100 99 99 98 97 97 98 100 100 100 100 100
83 78 73 70 65 60 57 55 53 51 50 49 47 45 44 43 43 43 44 44 44 43 41 39 37 36 36 36 37 36 36 34 33 32 33 35 39 44 50 47 40 36 42 54 63 70 76 82 88 92 94 96 98 100 100 100 99 99 101 100 99 100 98 92 87 88 90 91 92 94 96 97 99 100 100 100 98 97 97 98 99 99 100 100 99